Location: Unspecified
(0.0000°N, 0.0000°E)
Time: 13:11:09
(UTC+00:00)

SR - Visible Passes

Search period start: 18 April 2015 00:00
Search period end: 28 April 2015 00:00
Orbit: 585 x 876 km, 66.7° (Epoch: 18 April)

Date Brightness Start Highest point End Pass type
(mag) Time Alt. Az. Time Alt. Az. Time Alt. Az.
18 Apr ? 04:07:40 10° NE 04:10:24 16° ENE 04:13:31 10° ESE visible
18 Apr ? 18:19:14 10° W 18:20:13 10° WNW 18:20:45 10° WNW visible
19 Apr ? 04:58:45 10° NNW 05:03:30 74° WSW 05:08:41 10° SSE visible
20 Apr ? 04:10:20 10° N 04:14:45 41° ENE 04:19:37 10° SE visible
21 Apr ? 03:23:17 10° NE 03:26:00 16° ENE 03:29:07 10° ESE visible
21 Apr ? 05:03:46 10° NW 05:07:58 28° WSW 05:12:23 10° S visible
22 Apr ? 04:18:48 73° WNW 04:19:05 75° WSW 04:24:19 10° SSE visible
23 Apr ? 03:34:28 14° SE 03:34:28 14° SE 03:35:14 10° SE visible
